Regional Weather Roundup
Issued by NWS Charleston, SC

Current Version | Previous Version | Graphics & Text | Print | Product List | Glossary On
Versions: 1 2 3 4 5 6 7 8 9 10 11 12 13 14 15 16 17 18 19 20 21 22 23 24 25 26 27 28 29 30 31 32 33 34 35 36 37 38 39 40 41 42 43 44 45 46 47 48 49 50
000 ASUS42 KCHS 162027 RWRCHS Regional Weather Roundup National Weather Service Charleston SC 300 PM EST TUE JAN 16 2018 NOTE: "fair" indicates few or no clouds below 12,000 feet with no significant weather and/or obstructions to visibility. Not all stations are quality controlled. Use data with caution, especially dewpoint observations. SCZ027-030-031-034>040-042>050-162100- ...Southeast South Carolina... CITY SKY/WX TMP DP RH WIND PRES REMARKS N Charleston PTSUNNY 58 28 32 S9 30.36F Waterfront Prk NOT AVBL Mount Pleasant FAIR 50 34 53 SE3 30.37S Johns Island FAIR 50 32 50 VRB3 30.37S Pinopolis N/A 46 36 66 VRB3 30.29F Moncks Corner FAIR 54 23 30 CALM 30.35F Summerville FAIR 57 28 33 SW3 30.36S Beaufort MCAS NOT AVBL Beaufort Arpt FAIR 54 32 43 S3 30.36F Hilton Head Is SUNNY 48 27 43 SE5 30.38F Walterboro FAIR 55 30 38 S7 30.36S Allendale FAIR 55 28 35 CALM 30.35R ...Southern Midlands and Pee Dee... CITY SKY/WX TMP DP RH WIND PRES REMARKS Georgetown FAIR 48 32 53 SE9 30.37S Kingstree FAIR 54 21 28 NW5 30.35F Orangeburg FAIR 53 24 32 CALM 30.35F Barnwell N/A 55 30 38 SW3 30.36R Aiken FAIR 54 28 37 SW10 30.37F Manning FAIR N/A N/A N/A MISG 30.36S Columbia PTSUNNY 55 27 34 SW5 30.34F Sumter PTSUNNY 54 23 29 SE3 30.33F Florence FAIR 52 22 30 NE5 30.36F Myrtle Beach FAIR 46 29 51 SE8 30.37F N Myrtle Beach FAIR 47 28 47 S6 30.36F $$ GAZ063-065-086>088-099>101-113>116-118-119-134>141-150-162100- ...Southeast Georgia... CITY SKY/WX TMP DP RH WIND PRES REMARKS Savannah Arpt PTSUNNY 58 29 33 E8 30.36F Hunter AAF MOSUNNY 55 25 30 E3 30.35R Fort Stewart FAIR 60 28 29 S6 30.33F Statesboro FAIR 59 24 26 CALM 30.35S Sylvania FAIR 58 33 39 CALM 30.36S Claxton FAIR 60 32 33 CALM 30.35F ...CSRA, Central and far Southeast Georgia... CITY SKY/WX TMP DP RH WIND PRES REMARKS Thomson FAIR 55 29 37 W9 30.39F Augusta-Bush FAIR 58 28 32 S7 30.34F Augusta-Daniel FAIR 55 28 35 CALM 30.35F Swainsboro FAIR 55 32 41 CALM 30.36F Vidalia FAIR 59 32 36 SW5 30.35S Eastman FAIR 58 10 15 W5 30.38F Hazlehurst FAIR 61 18 18 CALM 30.34S Alma FAIR 62 30 29 VRB5 30.33F Waycross FAIR 62 23 22 SW5 30.33F Jesup FAIR 64 27 24 CALM 30.34F Baxley FAIR 59 30 33 SW6 30.33F Brunswick FAIR 55 36 47 E7 30.36F Saint Simons FAIR 54 36 50 E10 30.36F $$ SCZ027-028-034-036>038-045-046-048>050-GAZ119-141-162100- ...Lake and Supplemental Coastal Observations... STATION/POSITION TIME TEMP WIND PRES WAVE SWELL AIR SEA DIR/SP/G HT/PER HT/PER/DIR (UTC) (F) (DEG/KT/KT) (MB) (FT/S) (FT/S/D) Winyah Bay 1945 45 110/ 5 1028.0F Lake Murray 1950 51 100/ 1/ 2 1026.8F ACE Basin NERRS 1945 49 180/ 1 1028.0F Fort Pulaski 2000 46 47 100/ 7/ 7 1028.7 Sapelo Island 2000 54 80/ 5 1028.0 $$ ANZ835-935-AMZ111-154-330-350-352-354-370-450-454-472-162100- ...C-MAN and Buoy Observations... STATION/POSITION TIME TEMP WIND PRES WAVE SWELL AIR SEA DIR/SP/G HT/PER HT/PER/DIR (UTC) (F) (DEG/KT/KT) (MB) (FT/S) (FT/S/D) Buoy 41004 2010 52 69 30/ 6/ 10 1028.2 Buoy 41008 1950 50 52 30/ 10/ 12 1028.1F 4/ 9 3/100/ 9 Folly Beach CMAN 2000 47 120/ 6/ 7 1029.1F Capers Nearshore 2008 46 47 120/ 6/ 8 1028.2F Fripp Nearshore 2008 48 46 50/ 4/ 8 1027.7F STATION/POSITION TIME TEMP WIND PRES WAVE SWELL AIR SEA DIR/SP/G HT/PER HT/PER/DIR (UTC) (F) (DEG/KT/KT) (MB) (FT/S) (FT/S/D) 5E St. Marys GA 2000 50 N/A 4/10 2/100/11 Frying Pan Buoy 2010 48 59 350/ 4/ 8 1028.0 Buoy 41025 2010 47 66 360/ 12/ 14 1027.3 Cape Lookout NC 2000 30/ 6/ 7 1027.8F Buoy 41002 1950 67 71 80/ 8/ 12 1025.1F 9/11 8/ 50/11 Buoy 41010 NOT AVBL St Augustine FL 2000 48 51 350/ 16/ 17 1027.7F $$

USA.gov is the U.S. government's official web portal to all federal, state and local government web resources and services.